Flag Weather past 2 weeks in Temuco, Chile

Now
66 °F

Passing clouds.


Feels Like: 66 °F
Forecast: 38 / 75 °F
Wind: 10 mph from Southwest

Location: Concepcion Airport

Current Time: Nov 26, 2014 at 11:25:27 AM

Latest Report: Nov 26, 2014 at 11:00 AM


Visibility: N/A

Pressure: 30.07 "Hg

Humidity: 60%

Dew point: 52 °F

Location of TemucoLocation

Historic Weather in Temuco — Graph

°F

Temuco temperature yesterday

Maximum temperature yesterday: 68 °F (at 4:00 PM)
Minimum temperature yesterday: 45 °F (at 6:00 AM)
Average temperature yesterday: 57 °F

Past Weeks' High & Low Weather Summary

 TemperatureHumidityPressure
High73 °F (Nov 16, 1:00 PM)100% (Nov 16, 9:00 PM)30.18 "Hg (Nov 16, 9:00 PM)
Low45 °F (Nov 20, 6:00 AM)43% (Nov 12, 11:00 AM)29.86 "Hg (Nov 17, 5:00 AM)
Average58 °F73%30.06 "Hg
* Reported Nov 11 10:00 AM — Nov 26 10:00 AM, Temuco, Weather by CustomWeather, © 2014

Note: Actual official high and low records may vary slightly from our data, if they occured in-between our weather recording intervals... More about our weather records

Advertising

Temuco weather history for previous 24 hours

 ConditionsComfort  
Time TempWeatherWind HumidityBarometerVisibility
10:00 AM
Nov 26
64 °FSunny.8 mph60%30.07 "Hg10 mi
9:00 AM57 °FPassing clouds.6 mph77%30.09 "HgN/A
8:00 AM54 °FSunny.6 mph88%30.09 "Hg10 mi
7:00 AM48 °FSunny.6 mph100%30.09 "Hg10 mi
6:00 AM48 °FClear.7 mph94%30.09 "Hg10 mi
5:00 AM50 °FClear.7 mph94%30.09 "Hg10 mi
4:00 AM52 °FClear.6 mph88%30.09 "Hg10 mi
3:00 AM52 °FClear.8 mph88%30.09 "Hg10 mi
2:00 AM52 °FClear.6 mph88%30.09 "Hg10 mi
1:00 AM54 °FClear.7 mph82%30.09 "Hg10 mi
12:00 AM55 °FClear.13 mph82%30.09 "Hg10 mi
11:00 PM
Nov 25
57 °FClear.12 mph72%30.09 "Hg10 mi
10:00 PM59 °FClear.13 mph68%30.09 "Hg10 mi
9:00 PM59 °FClear.15 mph72%30.07 "Hg10 mi
8:00 PM63 °FSunny.14 mph64%30.07 "Hg10 mi
7:00 PM64 °FSunny.16 mph56%30.04 "Hg10 mi
6:00 PM66 °FSunny.16 mph52%30.04 "Hg10 mi
5:00 PM68 °FSunny.20 mph53%30.04 "Hg10 mi
4:00 PM68 °FSunny.20 mph53%30.04 "Hg10 mi
3:00 PM66 °FSunny.16 mph56%30.01 "Hg10 mi
2:00 PMN/A12 mphN/AN/AN/A
1:00 PM66 °FSunny.10 mph46%30.01 "Hg10 mi
12:00 PM61 °FSunny.8 mph59%30.04 "Hg10 mi
11:00 AM59 °FPassing clouds.7 mph59%30.07 "HgN/A
Weather by CustomWeather, © 2014

See weather overviewHow to use our weather pages